sat.trackr.live / text

‹ back to catalog

STARLINK-11654 [DTC]

NORAD 63265 · 2025-053A

PAYLOAD ACTIVE UNKNOWN

§ Identity

Operator
Country
US
Launch date
2025-03-15
Launch site
AFETR
Launch vehicle
Mass (kg)
RCS (m²)

Purposes: comms

External: N2YO · Heavens-Above · Gunter

§ Orbital elements

Epoch: 2026-09-20T14:18:11.605824Z

Period
91.67 min
Inclination
43.0031°
Eccentricity
0.0001097
Mean motion
15.70841319 rev/d
Perigee alt
355.8 km
Apogee alt
357.2 km
Semi-major
6,734.6 km
B*
1.0093e-3
RAAN
17.3597°
Arg perigee
257.6866°
Mean anomaly
102.3879°
Rev number
8,832

§ Raw data

STARLINK-11654 [DTC]1 63265U 25053A   26263.59596766  .00131121  00000+0  10093-2 0  99922 63265  43.0031  17.3597 0001097 257.6866 102.3879 15.70841319 88324

JSON: /api/v1/satellites/63265 · /tle

For live sub-satellite position, see the globe view (requires WebGL).

§ Visibility from observer

Set your observer location to see the next 7 days of passes ≥ 10°. The values pass through the URL so the page stays shareable.

No JS? Fill the form by hand. The geolocation button needs JavaScript.